FENGYUN 1C DEB

Satellite information

Favourite Embed

Satellite Type and Status

DEBRISIN ORBIT

Key statistics

Satellite FENGYUN 1C DEB at a glance.

Uptime

9715

Days in orbit

Revolutions

≈ 14.1

Per day

Orbit

SSO

Sun Synchronous Orbit

Inclination

99.1

Latest

Satellite identification and parameters

Extended collection of information and parameters for FENGYUN 1C DEB.

Object identification

Identified? True

Debris? True

Object name: FENGYUN 1C DEB

International designator: 1999-025BY

Object number (NORAD): 29782

Object ID (CCSDS): 29782

Country: PEOPLES REPUBLIC OF CHINA (PRC)

Current information (Y/N): Y

RCS size: SMALL

Orbital parameters

Period: 102.008 minutes

Inclination: 99.0999 deg

SMA: 7231.842 km

Apoapsis: 893.829 km

Periapsis: 813.586 km

RAAN: 39.6777 deg

Eccentricy: 0.00554793

Argument of periapsis: 204.7889 deg

Mean anomaly: 216.4273 deg

Mean motion: 14.11657487 rev/day

Mean motion (dot): 0.00004111 rev/day2

B* drag term: 0.0022515109 1/REarth

Two-line elements (TLE)

Creation date: Dec. 12, 2025, 10:14 a.m.

Reference frame: TEME

Reference center: EARTH

Epoch: Dec. 12, 2025, 2:11 a.m. UTC

TLE line 0: 0 FENGYUN 1C DEB

TLE line 1: 1 29782U 99025BY 25346.09159171 .00004111 00000-0 22515-2 0 9990

TLE line 2: 2 29782 99.0999 39.6777 0055479 204.7889 216.4273 14.11657487966620

Live tracking on map

Real-time ground track for satellite FENGYUN 1C DEB.

In-orbit conjunctions

A list of the most updated potential collisions computed for object FENGYUN 1C DEB.

Target Orbit TCA Probability of collision Miss distance Type
COSMOS 1365 FUEL CORE LEO 2025-11-06 21:04:41 0.0008262664 57.0 (m) DEBRIS
CZ-4 DEB SSO 2025-10-05 22:20:42 0.0001465108 348.0 (m) DEBRIS
COSMOS 1275 DEB LEO 2025-05-18 15:02:08 0.0001807599 155.0 (m) DEBRIS
THORAD AGENA D DEB SSO 2024-12-13 10:42:52 0.0001358942 224.0 (m) DEBRIS

Associated space launch

Chinese polar orbiting meteorological satellite

FENGYUN 1C DEB was lifted into orbit during the mission ‘Long March 4B | Feng Yun 1C’, on board a Long March 4B space rocket.

The launch took place on May 10, 1999, 1:33 a.m. from Launch Complex 7.

For more information about the launch, click the button.

Launch to space Long March 4B | Feng Yun 1C
Long March 4B | Feng Yun 1C

Agency: N/A

Status: Launch Successful

Launch date: May 10, 1999, 1:33 a.m. UTC

Rocket: Long March 4B

Launch pad: Launch Complex 7

Location: Taiyuan Satellite Launch Center, People's Republic of China

...

Latest news about this satellite

There are no fresh news available about this satellite. Check back as we update our databases every day.


Newsletter sign-up

Weekly statistics, charts and insights to help you stay on top of the space industry.